DW0980 Weather Reports


time (UTC)temp
F
wind
direction
speed
knots
gust
knots
rain 1hr
in
rain 24hr
in
rain mn
in
humidity
%
barometer
mb
20260507000036 59 202 0.0 3.5 0.00 0.17 0.15 94 1003.3
20260506234535 59 201 0.0 0.0 0.00 0.17 0.15 94 1003.0
20260506233040 59 201 0.0 5.2 0.01 0.17 0.15 94 1002.9
20260506231534 59 217 0.0 3.5 0.01 0.17 0.15 94 1003.1
20260506230034 59 230 0.9 5.2 0.01 0.17 0.15 93 1003.1
20260506224533 60 248 0.0 7.0 0.01 0.17 0.15 93 1003.2
20260506223032 60 221 0.9 13.0 0.00 0.16 0.14 92 1003.2
20260506221532 60 179 5.2 10.4 0.00 0.16 0.14 92 1003.2
20260506220033 60 207 6.1 16.5 0.00 0.16 0.14 93 1003.3
20260506214531 61 165 4.3 9.6 0.01 0.16 0.14 94 1003.2
20260506213029 61 179 1.7 7.8 0.01 0.16 0.14 95 1003.0
20260506211526 61 182 0.9 6.1 0.01 0.16 0.14 95 1003.5
20260506210026 61 171 2.6 7.8 0.01 0.16 0.14 95 1003.5
20260506204525 61 195 0.9 7.0 0.02 0.15 0.13 95 1003.5
20260506203024 62 227 0.0 7.0 0.04 0.15 0.13 95 1003.6
20260506201524 61 170 1.7 7.0 0.05 0.15 0.13 95 1003.6
20260506200022 61 166 3.5 8.7 0.05 0.15 0.13 95 1003.7
20260506194520 61 165 1.7 6.1 0.04 0.13 0.11 95 1003.9
20260506193019 61 181 0.0 3.5 0.03 0.11 0.09 94 1004.1
20260506191519 61 181 0.0 3.5 0.03 0.10 0.08 94 1004.0
20260506190018 61 181 0.0 0.0 0.04 0.10 0.08 93 1004.0
20260506184514 61 182 0.9 5.2 0.04 0.09 0.07 93 1004.6
20260506183011 61 202 0.0 3.5 0.04 0.08 0.06 92 1005.0
20260506181510 61 187 0.9 5.2 0.04 0.07 0.05 91 1005.1
20260506180010 62 182 0.9 7.0 0.03 0.06 0.04 89 1005.3
20260506174509 62 227 1.7 8.7 0.02 0.05 0.03 87 1005.6
20260506173008 63 227 3.5 10.4 0.01 0.04 0.02 84 1005.6
20260506171508 65 221 6.1 13.0 0.00 0.03 0.01 80 1005.4
20260506170008 66 220 2.6 7.8 0.00 0.03 0.01 76 1005.3
20260506164506 67 187 1.7 11.3 0.00 0.03 0.01 74 1005.1
20260506163012 67 225 2.6 12.2 0.00 0.03 0.01 74 1005.3
20260506161503 67 198 7.8 13.9 0.00 0.03 0.01 71 1005.6
20260506160109 67 232 2.6 11.3 0.00 0.03 0.01 75 1005.8
20260506154557 67 204 0.9 7.0 0.00 0.03 0.01 76 1006.1
20260506153055 66 222 0.9 7.8 0.00 0.03 0.01 75 1006.5
20260506151554 66 225 0.0 6.1 0.00 0.03 0.01 76 1006.6
20260506150055 66 232 1.7 10.4 0.00 0.03 0.01 75 1006.6
20260506144553 66 231 0.0 6.1 0.00 0.03 0.01 76 1006.4
20260506143052 66 248 1.7 7.0 0.00 0.03 0.01 76 1006.6
20260506141549 66 223 1.7 7.8 0.00 0.03 0.01 78 1006.4
20260506140048 64 227 0.9 7.8 0.00 0.03 0.01 81 1006.5
20260506134609 63 244 0.0 6.1 0.00 0.03 0.01 82 1006.4
20260506133038 62 250 0.0 8.7 0.00 0.03 0.01 83 1006.8
20260506131534 61 234 0.0 7.0 0.00 0.03 0.01 85 1007.0
20260506130032 61 243 0.0 0.0 0.00 0.03 0.01 85 1006.9
20260506124529 60 243 0.0 0.0 0.00 0.03 0.01 87 1007.0
20260506123026 59 243 0.0 0.0 0.00 0.03 0.01 88 1006.9
20260506121522 58 243 0.0 0.0 0.00 0.03 0.01 89 1006.9
20260506120019 57 243 0.0 2.6 0.00 0.03 0.01 91 1007.1
20260506114526 56 243 0.0 2.6 0.00 0.03 0.01 92 1007.3
20260506113015 56 243 0.0 2.6 0.00 0.03 0.01 94 1007.4
20260506111514 55 243 0.0 0.0 0.00 0.03 0.01 95 1007.3
20260506110016 54 244 0.0 0.0 0.00 0.03 0.01 95 1007.4
20260506104509 54 244 0.0 0.0 0.00 0.03 0.01 95 1007.3
20260506103019 53 244 0.0 0.0 0.00 0.03 0.01 94 1007.5
20260506101507 53 244 0.0 0.9 0.00 0.03 0.01 94 1007.4
20260506100005 53 244 0.0 0.0 0.00 0.03 0.01 93 1007.3
20260506094503 53 244 0.0 0.9 0.00 0.03 0.01 94 1007.1
20260506093001 53 244 1.7 4.3 0.00 0.03 0.01 95 1007.3
20260506091601 53 244 0.0 2.6 0.00 0.03 0.01 94 1007.3
20260506090059 53 244 0.0 0.0 0.00 0.03 0.01 94 1007.2
20260506084605 53 244 0.0 3.5 0.00 0.03 0.01 94 1007.2
20260506083115 54 244 0.0 4.3 0.00 0.03 0.01 94 1007.2
20260506081554 54 244 0.0 0.0 0.00 0.03 0.01 94 1007.5
20260506073049 55 244 0.0 0.0 0.00 0.03 0.01 93 1007.4
20260506071552 55 244 0.0 0.0 0.00 0.03 0.01 93 1007.3
20260506061544 57 244 0.0 0.0 0.00 0.03 0.01 91 1007.0
20260506044539 57 252 0.0 0.0 0.01 0.03 0.01 94 1007.2
20260506043036 57 252 0.0 0.0 0.00 0.02 0.00 94 1007.2
20260506041538 57 252 0.0 0.0 0.00 0.02 0.00 94 1007.3
20260506040032 57 252 0.0 0.0 0.00 0.02 0.02 94 1007.1
20260506034531 58 252 0.0 0.0 0.00 0.02 0.02 94 1007.1
20260506033030 58 252 0.0 0.0 0.00 0.02 0.02 93 1007.1
20260506031537 58 252 0.0 0.0 0.00 0.02 0.02 93 1006.9
20260506030030 58 252 0.0 0.9 0.00 0.02 0.02 93 1007.1
20260506024538 58 252 0.0 0.0 0.00 0.02 0.02 92 1006.9
20260506023029 59 252 0.0 0.0 0.00 0.02 0.02 92 1006.7
20260506021528 59 252 0.0 0.0 0.00 0.02 0.02 91 1006.9
20260506020028 60 252 0.0 0.0 0.00 0.02 0.02 91 1006.9
20260506014527 60 252 0.0 0.0 0.00 0.02 0.02 90 1006.7
20260506013030 61 252 0.0 0.0 0.00 0.02 0.02 89 1007.2
20260506011556 61 252 0.0 0.0 0.00 0.02 0.02 88 1007.1
20260506010025 62 252 0.0 0.0 0.02 0.02 0.02 87 1007.0
20260506004524 63 252 0.0 0.0 0.02 0.02 0.02 85 1006.8
20260506003024 65 252 0.0 0.0 0.02 0.02 0.02 81 1006.5
20260506001523 67 252 0.0 4.3 0.02 0.02 0.02 74 1006.3